Location: ???????????
(54.6970°N, 39.1477°E)
Time: 08:08:14
(UTC+00:00)

COSMOS 2406 - Pass Details

Date: 19 May 2025
Orbit: 845 x 859 km, 71.0° (Epoch: 23 June)

Event Time Altitude Azimuth Distance (km) Brightness Sun altitude
Exits shadow 20:17:10 18° 190° (S) 1,991 4.6 -14.1°
Maximum altitude 20:21:25 59° 115° (ESE) 980 3.3 -14.3°
Drops below altitude 10° 20:27:01 10° 38° (NE) 2,493 6.2 -14.5°
Sets 20:29:31 0° 35° (NE) 3,435 7.0 -14.6°
